Station Historical Data
Daily Summary for July 18, 2017 Units:  English    Metric   Both
Next Day »
Daily Weekly Monthly Yearly Custom
  High: Low: Average:
Temperature: 86.6 °F 66.1 °F 74.1 °F
Dew Point: 48.2 °F 33.4 °F 41.4 °F
Humidity: 48% 16% 33%
Wind Speed: 16.0mph 0.0mph 3.6mph
Wind Gust: 19.0mph - -
Wind- - SSE
Pressure: 29.96 in 29.85 in -
Precipitation: 0.00 in    
Historical Graphs
 
 
Tabular Data for July 18, 2017
Time Temperature Dew Point Pressure Wind Wind Speed Wind Gust Humidity Rainfall Rate (Hourly) solar Conditions
00:03 72.6 °F 46.2 °F 29.85 in ESE 1.0 mph 11.0 mph 39% 0.00 in 0.00 W/m2
00:08 72.5 °F 46.2 °F 29.85 in ESE 8.0 mph 8.0 mph 39% 0.00 in 0.00 W/m2
00:13 72.4 °F 46.1 °F 29.85 in Calm   8.0 mph 39% 0.00 in 0.00 W/m2
00:18 72.3 °F 46.0 °F 29.86 in Calm   9.0 mph 39% 0.00 in 0.00 W/m2
00:23 72.2 °F 45.9 °F 29.85 in Calm   11.0 mph 39% 0.00 in 0.00 W/m2
00:28 72.2 °F 45.9 °F 29.86 in Calm   9.0 mph 39% 0.00 in 0.00 W/m2
00:33 72.1 °F 45.8 °F 29.86 in ESE 2.0 mph 7.0 mph 39% 0.00 in 0.00 W/m2
00:38 72.0 °F 45.7 °F 29.85 in ESE 6.0 mph 8.0 mph 39% 0.00 in 0.00 W/m2
00:43 71.9 °F 46.3 °F 29.85 in Calm   9.0 mph 40% 0.00 in 0.00 W/m2
00:48 71.8 °F 45.5 °F 29.85 in ESE 5.0 mph 11.0 mph 39% 0.00 in 0.00 W/m2
00:53 71.7 °F 45.5 °F 29.85 in Calm   8.0 mph 39% 0.00 in 0.00 W/m2
00:58 71.7 °F 45.5 °F 29.85 in Calm   7.0 mph 39% 0.00 in 0.00 W/m2
01:03 71.6 °F 45.4 °F 29.85 in ESE 2.0 mph 8.0 mph 39% 0.00 in 0.00 W/m2
01:08 71.5 °F 45.3 °F 29.85 in ESE 6.0 mph 9.0 mph 39% 0.00 in 0.00 W/m2
01:13 71.4 °F 45.2 °F 29.85 in Calm   7.0 mph 39% 0.00 in 0.00 W/m2
01:18 71.3 °F 45.8 °F 29.85 in ESE 6.0 mph 11.0 mph 40% 0.00 in 0.00 W/m2
01:23 71.2 °F 45.7 °F 29.85 in ESE 1.0 mph 11.0 mph 40% 0.00 in 0.00 W/m2
01:28 71.1 °F 45.6 °F 29.85 in ESE 5.0 mph 8.0 mph 40% 0.00 in 0.00 W/m2
01:31 71.0 °F 45.5 °F 29.85 in ESE 5.0 mph 11.0 mph 40% 0.00 in 0.00 W/m2
01:36 70.9 °F 45.4 °F 29.85 in ESE 4.0 mph 12.0 mph 40% 0.00 in 0.00 W/m2
01:41 70.8 °F 45.3 °F 29.85 in ESE 4.0 mph 12.0 mph 40% 0.00 in 0.00 W/m2
01:46 70.7 °F 45.2 °F 29.85 in Calm   11.0 mph 40% 0.00 in 0.00 W/m2
01:51 70.6 °F 45.1 °F 29.85 in ESE 4.0 mph 12.0 mph 40% 0.00 in 0.00 W/m2
01:56 70.6 °F 45.1 °F 29.85 in ESE 7.0 mph 12.0 mph 40% 0.00 in 0.00 W/m2
02:01 70.5 °F 45.0 °F 29.85 in Calm   12.0 mph 40% 0.00 in 0.00 W/m2
02:06 70.4 °F 45.0 °F 29.85 in Calm   11.0 mph 40% 0.00 in 0.00 W/m2
02:11 70.4 °F 45.6 °F 29.85 in ESE 2.0 mph 11.0 mph 41% 0.00 in 0.00 W/m2
02:16 70.4 °F 45.0 °F 29.85 in ESE 4.0 mph 12.0 mph 40% 0.00 in 0.00 W/m2
02:21 70.3 °F 44.9 °F 29.85 in Calm   13.0 mph 40% 0.00 in 0.00 W/m2
02:26 70.3 °F 45.5 °F 29.85 in Calm   13.0 mph 41% 0.00 in 0.00 W/m2
02:31 70.2 °F 45.4 °F 29.85 in ESE 6.0 mph 6.0 mph 41% 0.00 in 0.00 W/m2
02:36 70.2 °F 44.8 °F 29.85 in ESE 4.0 mph 6.0 mph 40% 0.00 in 0.00 W/m2
02:41 70.1 °F 44.7 °F 29.85 in ESE 4.0 mph 5.0 mph 40% 0.00 in 0.00 W/m2
02:46 70.0 °F 44.6 °F 29.85 in ESE 7.0 mph 8.0 mph 40% 0.00 in 0.00 W/m2
02:51 69.9 °F 45.2 °F 29.85 in ESE 5.0 mph 5.0 mph 41% 0.00 in 0.00 W/m2
02:56 69.8 °F 44.4 °F 29.85 in ESE 4.0 mph 7.0 mph 40% 0.00 in 0.00 W/m2
03:01 69.7 °F 45.0 °F 29.85 in ESE 7.0 mph 9.0 mph 41% 0.00 in 0.00 W/m2
03:06 69.6 °F 44.9 °F 29.85 in ESE 4.0 mph 7.0 mph 41% 0.00 in 0.00 W/m2
03:11 69.5 °F 44.8 °F 29.85 in Calm   6.0 mph 41% 0.00 in 0.00 W/m2
03:16 69.4 °F 44.7 °F 29.86 in East 14.0 mph 14.0 mph 41% 0.00 in 0.00 W/m2
03:21 69.3 °F 44.6 °F 29.86 in East 2.0 mph 5.0 mph 41% 0.00 in 0.00 W/m2
03:26 69.2 °F 44.5 °F 29.85 in ESE 5.0 mph 7.0 mph 41% 0.00 in 0.00 W/m2
03:31 69.2 °F 44.5 °F 29.86 in ESE 1.0 mph 13.0 mph 41% 0.00 in 0.00 W/m2
03:36 69.1 °F 45.1 °F 29.86 in Calm   6.0 mph 42% 0.00 in 0.00 W/m2
03:41 69.0 °F 45.0 °F 29.86 in East 1.0 mph 6.0 mph 42% 0.00 in 0.00 W/m2
03:46 69.0 °F 45.0 °F 29.86 in ESE 5.0 mph 6.0 mph 42% 0.00 in 0.00 W/m2
03:51 68.9 °F 44.2 °F 29.86 in ESE 9.0 mph 9.0 mph 41% 0.00 in 0.00 W/m2
03:56 68.8 °F 44.2 °F 29.86 in Calm   9.0 mph 41% 0.00 in 0.00 W/m2
04:01 68.7 °F 44.7 °F 29.86 in ESE 2.0 mph 7.0 mph 42% 0.00 in 0.00 W/m2
04:06 68.6 °F 44.0 °F 29.86 in Calm   6.0 mph 41% 0.00 in 0.00 W/m2
04:11 68.5 °F 43.9 °F 29.86 in ESE 2.0 mph 8.0 mph 41% 0.00 in 0.00 W/m2
04:12 68.5 °F 44.5 °F 29.86 in East 2.0 mph 15.0 mph 42% 0.00 in 0.00 W/m2
04:17 68.5 °F 44.5 °F 29.86 in East 6.0 mph 11.0 mph 42% 0.00 in 0.00 W/m2
04:22 68.4 °F 44.4 °F 29.86 in Calm   12.0 mph 42% 0.00 in 0.00 W/m2
04:27 68.3 °F 43.7 °F 29.86 in East 5.0 mph 9.0 mph 41% 0.00 in 0.00 W/m2
04:32 68.2 °F 44.3 °F 29.87 in ESE 12.0 mph 12.0 mph 42% 0.00 in 0.00 W/m2
04:37 68.1 °F 44.2 °F 29.86 in East 7.0 mph 14.0 mph 42% 0.00 in 0.00 W/m2
04:42 68.1 °F 44.8 °F 29.87 in East 4.0 mph 11.0 mph 43% 0.00 in 0.00 W/m2
04:47 68.0 °F 44.1 °F 29.87 in East 12.0 mph 12.0 mph 42% 0.00 in 0.00 W/m2
04:52 67.9 °F 44.0 °F 29.87 in East 8.0 mph 11.0 mph 42% 0.00 in 0.00 W/m2
04:57 67.9 °F 44.0 °F 29.87 in ESE 8.0 mph 12.0 mph 42% 0.00 in 0.00 W/m2
05:02 67.8 °F 44.5 °F 29.87 in Calm   11.0 mph 43% 0.00 in 0.00 W/m2
05:07 67.8 °F 44.5 °F 29.87 in ESE 4.0 mph 8.0 mph 43% 0.00 in 0.00 W/m2
05:12 67.7 °F 44.4 °F 29.87 in ESE 4.0 mph 13.0 mph 43% 0.00 in 0.00 W/m2
05:17 67.6 °F 44.3 °F 29.87 in ESE 6.0 mph 8.0 mph 43% 0.00 in 0.00 W/m2
05:22 67.4 °F 44.2 °F 29.87 in East 6.0 mph 11.0 mph 43% 0.00 in 0.00 W/m2
05:27 67.3 °F 44.1 °F 29.87 in East 4.0 mph 14.0 mph 43% 0.00 in 0.00 W/m2
05:32 67.1 °F 43.9 °F 29.87 in Calm   13.0 mph 43% 0.00 in 0.00 W/m2
05:37 67.1 °F 43.9 °F 29.87 in East 8.0 mph 15.0 mph 43% 0.00 in 0.00 W/m2
05:42 67.0 °F 43.8 °F 29.87 in ESE 8.0 mph 9.0 mph 43% 0.00 in 0.00 W/m2
05:47 66.9 °F 43.7 °F 29.88 in ESE 6.0 mph 13.0 mph 43% 0.00 in 0.00 W/m2
05:52 66.8 °F 43.6 °F 29.88 in ESE 6.0 mph 15.0 mph 43% 0.00 in 5.00 W/m2
05:57 66.8 °F 44.2 °F 29.88 in ESE 12.0 mph 13.0 mph 44% 0.00 in 7.00 W/m2
06:03 66.7 °F 43.5 °F 29.88 in ESE 1.0 mph 12.0 mph 43% 0.00 in 9.00 W/m2
06:08 66.7 °F 44.1 °F 29.88 in ESE 4.0 mph 11.0 mph 44% 0.00 in 11.00 W/m2
06:13 66.6 °F 44.0 °F 29.88 in ESE 7.0 mph 11.0 mph 44% 0.00 in 12.00 W/m2
06:18 66.5 °F 43.9 °F 29.88 in Calm   12.0 mph 44% 0.00 in 14.00 W/m2
06:23 66.5 °F 43.9 °F 29.89 in Calm   7.0 mph 44% 0.00 in 18.00 W/m2
06:28 66.5 °F 43.9 °F 29.89 in East 12.0 mph 14.0 mph 44% 0.00 in 28.00 W/m2
06:33 66.4 °F 43.8 °F 29.89 in ESE 6.0 mph 11.0 mph 44% 0.00 in 37.00 W/m2
06:38 66.3 °F 43.8 °F 29.89 in ESE 5.0 mph 11.0 mph 44% 0.00 in 51.00 W/m2
06:43 66.3 °F 43.8 °F 29.89 in East 11.0 mph 15.0 mph 44% 0.00 in 65.00 W/m2
06:48 66.3 °F 44.3 °F 29.89 in ESE 1.0 mph 9.0 mph 45% 0.00 in 81.00 W/m2
06:53 66.2 °F 44.2 °F 29.89 in Calm   9.0 mph 45% 0.00 in 100.00 W/m2
06:58 66.2 °F 44.2 °F 29.90 in ESE 8.0 mph 11.0 mph 45% 0.00 in 118.00 W/m2
07:06 66.1 °F 44.7 °F 29.90 in ESE 5.0 mph 11.0 mph 46% 0.00 in 146.00 W/m2
07:11 66.1 °F 44.7 °F 29.90 in ESE 4.0 mph 7.0 mph 46% 0.00 in 165.00 W/m2
07:16 66.1 °F 44.2 °F 29.90 in Calm   6.0 mph 45% 0.00 in 183.00 W/m2
07:21 66.1 °F 44.7 °F 29.90 in ESE 6.0 mph 8.0 mph 46% 0.00 in 209.00 W/m2
07:26 66.1 °F 45.3 °F 29.90 in ESE 6.0 mph 8.0 mph 47% 0.00 in 229.00 W/m2
07:31 66.2 °F 45.4 °F 29.90 in Calm   13.0 mph 47% 0.00 in 243.00 W/m2
07:36 66.2 °F 45.4 °F 29.90 in ESE 9.0 mph 13.0 mph 47% 0.00 in 267.00 W/m2
07:41 66.2 °F 46.0 °F 29.90 in Calm   5.0 mph 48% 0.00 in 287.00 W/m2
07:46 66.3 °F 46.0 °F 29.90 in Calm   7.0 mph 48% 0.00 in 297.00 W/m2
07:51 66.3 °F 46.0 °F 29.90 in Calm   12.0 mph 48% 0.00 in 316.00 W/m2
07:56 66.4 °F 46.1 °F 29.90 in ESE 7.0 mph 12.0 mph 48% 0.00 in 334.00 W/m2
08:01 66.5 °F 46.2 °F 29.90 in ESE 2.0 mph 8.0 mph 48% 0.00 in 353.00 W/m2
08:06 66.6 °F 46.3 °F 29.90 in ESE 1.0 mph 8.0 mph 48% 0.00 in 366.00 W/m2
08:11 66.8 °F 45.9 °F 29.90 in SE 7.0 mph 12.0 mph 47% 0.00 in 380.00 W/m2
08:16 67.0 °F 46.7 °F 29.91 in SE 2.0 mph 11.0 mph 48% 0.00 in 399.00 W/m2
08:21 67.2 °F 46.9 °F 29.91 in SE 5.0 mph 9.0 mph 48% 0.00 in 415.00 W/m2
08:26 67.5 °F 46.6 °F 29.91 in SE 7.0 mph 11.0 mph 47% 0.00 in 432.00 W/m2
08:31 67.7 °F 46.2 °F 29.91 in SE 2.0 mph 8.0 mph 46% 0.00 in 448.00 W/m2
08:36 68.0 °F 47.0 °F 29.91 in SE 1.0 mph 4.0 mph 47% 0.00 in 462.00 W/m2
08:41 68.3 °F 46.7 °F 29.91 in SE 7.0 mph 7.0 mph 46% 0.00 in 476.00 W/m2
08:46 68.6 °F 47.0 °F 29.92 in SE 4.0 mph 6.0 mph 46% 0.00 in 496.00 W/m2
08:51 68.9 °F 47.9 °F 29.91 in SE 4.0 mph 8.0 mph 47% 0.00 in 506.00 W/m2
08:56 69.2 °F 46.4 °F 29.91 in SE 8.0 mph 8.0 mph 44% 0.00 in 520.00 W/m2
09:01 69.5 °F 46.0 °F 29.91 in SE 7.0 mph 8.0 mph 43% 0.00 in 540.00 W/m2
09:06 69.8 °F 46.3 °F 29.92 in SE 1.0 mph 6.0 mph 43% 0.00 in 554.00 W/m2
09:11 70.2 °F 46.7 °F 29.92 in SE 5.0 mph 6.0 mph 43% 0.00 in 570.00 W/m2
09:16 70.7 °F 45.9 °F 29.92 in SSE 6.0 mph 7.0 mph 41% 0.00 in 585.00 W/m2
09:21 71.1 °F 44.2 °F 29.92 in Calm   6.0 mph 38% 0.00 in 598.00 W/m2
09:26 71.4 °F 43.8 °F 29.92 in SSE 6.0 mph 8.0 mph 37% 0.00 in 610.00 W/m2
09:31 71.8 °F 46.2 °F 29.92 in South 7.0 mph 7.0 mph 40% 0.00 in 626.00 W/m2
09:36 72.1 °F 47.1 °F 29.92 in South 9.0 mph 9.0 mph 41% 0.00 in 638.00 W/m2
09:41 72.4 °F 44.0 °F 29.92 in SSW 6.0 mph 12.0 mph 36% 0.00 in 654.00 W/m2
09:46 72.7 °F 46.3 °F 29.92 in Calm   8.0 mph 39% 0.00 in 666.00 W/m2
09:51 73.2 °F 46.8 °F 29.93 in SSW 7.0 mph 8.0 mph 39% 0.00 in 679.00 W/m2
09:56 73.5 °F 45.7 °F 29.93 in South 3.0 mph 8.0 mph 37% 0.00 in 691.00 W/m2
10:02 73.8 °F 46.6 °F 29.93 in SSW 11.0 mph 12.0 mph 38% 0.00 in 703.00 W/m2
10:07 74.1 °F 46.2 °F 29.93 in Calm   8.0 mph 37% 0.00 in 714.00 W/m2
10:12 74.6 °F 47.3 °F 29.92 in Calm   7.0 mph 38% 0.00 in 726.00 W/m2
10:17 74.9 °F 47.6 °F 29.93 in Calm   8.0 mph 38% 0.00 in 737.00 W/m2
10:22 75.2 °F 47.9 °F 29.93 in South 5.0 mph 8.0 mph 38% 0.00 in 749.00 W/m2
10:27 75.6 °F 48.2 °F 29.93 in SSW 4.0 mph 5.0 mph 38% 0.00 in 761.00 W/m2
10:32 75.9 °F 47.1 °F 29.93 in SSW 3.0 mph 11.0 mph 36% 0.00 in 772.00 W/m2
10:37 76.2 °F 46.6 °F 29.93 in South 3.0 mph 7.0 mph 35% 0.00 in 786.00 W/m2
10:42 76.6 °F 46.2 °F 29.93 in SSE 11.0 mph 12.0 mph 34% 0.00 in 793.00 W/m2
10:47 76.9 °F 44.8 °F 29.93 in SSW 3.0 mph 3.0 mph 32% 0.00 in 803.00 W/m2
10:52 77.2 °F 45.1 °F 29.94 in SW 8.0 mph 11.0 mph 32% 0.00 in 809.00 W/m2
10:57 77.5 °F 43.7 °F 29.94 in SSW 5.0 mph 15.0 mph 30% 0.00 in 819.00 W/m2
11:02 77.6 °F 42.9 °F 29.94 in SW 10.0 mph 12.0 mph 29% 0.00 in 830.00 W/m2
11:07 77.9 °F 42.2 °F 29.94 in SW 6.0 mph 8.0 mph 28% 0.00 in 840.00 W/m2
11:12 78.1 °F 41.4 °F 29.94 in SSW 11.0 mph 11.0 mph 27% 0.00 in 849.00 W/m2
11:17 78.3 °F 40.6 °F 29.94 in South 1.0 mph 13.0 mph 26% 0.00 in 860.00 W/m2
11:22 78.5 °F 38.7 °F 29.94 in SSW 3.0 mph 11.0 mph 24% 0.00 in 865.00 W/m2
11:27 78.7 °F 41.0 °F 29.94 in Calm   10.0 mph 26% 0.00 in 874.00 W/m2
11:32 79.0 °F 40.2 °F 29.94 in Calm   6.0 mph 25% 0.00 in 877.00 W/m2
11:37 79.1 °F 39.2 °F 29.94 in Calm   2.0 mph 24% 0.00 in 884.00 W/m2
11:42 79.4 °F 39.5 °F 29.94 in Calm   7.0 mph 24% 0.00 in 893.00 W/m2
11:47 79.7 °F 40.8 °F 29.95 in SW 8.0 mph 13.0 mph 25% 0.00 in 896.00 W/m2
11:52 80.0 °F 41.1 °F 29.95 in South 4.0 mph 6.0 mph 25% 0.00 in 905.00 W/m2
11:57 80.4 °F 40.3 °F 29.95 in SSW 10.0 mph 15.0 mph 24% 0.00 in 905.00 W/m2
12:02 80.8 °F 39.6 °F 29.95 in SSW 11.0 mph 11.0 mph 23% 0.00 in 911.00 W/m2
12:07 81.2 °F 38.8 °F 29.95 in SSW 8.0 mph 16.0 mph 22% 0.00 in 914.00 W/m2
12:12 81.6 °F 36.7 °F 29.95 in SSE 5.0 mph 12.0 mph 20% 0.00 in 923.00 W/m2
12:17 81.8 °F 36.8 °F 29.95 in SSW 5.0 mph 14.0 mph 20% 0.00 in 926.00 W/m2
12:22 82.1 °F 37.1 °F 29.95 in SSW 7.0 mph 15.0 mph 20% 0.00 in 930.00 W/m2
12:27 82.3 °F 37.3 °F 29.95 in Calm   16.0 mph 20% 0.00 in 932.00 W/m2
12:32 82.5 °F 34.8 °F 29.95 in South 6.0 mph 12.0 mph 18% 0.00 in 935.00 W/m2
12:37 83.0 °F 36.5 °F 29.95 in SSE 8.0 mph 13.0 mph 19% 0.00 in 937.00 W/m2
12:42 83.5 °F 35.6 °F 29.95 in SSW 3.0 mph 11.0 mph 18% 0.00 in 940.00 W/m2
12:47 84.0 °F 36.0 °F 29.95 in South 2.0 mph 12.0 mph 18% 0.00 in 942.00 W/m2
12:52 84.3 °F 36.2 °F 29.95 in SSW 12.0 mph 14.0 mph 18% 0.00 in 944.00 W/m2
12:54 84.4 °F 36.3 °F 29.95 in SSW 1.0 mph 14.0 mph 18% 0.00 in 944.00 W/m2
12:59 84.7 °F 35.1 °F 29.95 in Calm   13.0 mph 17% 0.00 in 944.00 W/m2
13:04 84.8 °F 36.6 °F 29.95 in SSE 12.0 mph 15.0 mph 18% 0.00 in 946.00 W/m2
13:09 84.8 °F 38.0 °F 29.95 in South 10.0 mph 16.0 mph 19% 0.00 in 944.00 W/m2
13:14 84.7 °F 36.5 °F 29.95 in Calm   16.0 mph 18% 0.00 in 944.00 W/m2
13:19 84.8 °F 35.2 °F 29.95 in WSW 7.0 mph 17.0 mph 17% 0.00 in 944.00 W/m2
13:24 85.1 °F 36.9 °F 29.95 in SSW 7.0 mph 13.0 mph 18% 0.00 in 940.00 W/m2
13:29 85.5 °F 38.6 °F 29.95 in Calm   9.0 mph 19% 0.00 in 942.00 W/m2
13:34 85.5 °F 37.2 °F 29.95 in South 8.0 mph 17.0 mph 18% 0.00 in 942.00 W/m2
13:39 85.7 °F 35.9 °F 29.95 in SW 4.0 mph 12.0 mph 17% 0.00 in 940.00 W/m2
13:44 85.7 °F 34.4 °F 29.95 in SSW 1.0 mph 13.0 mph 16% 0.00 in 933.00 W/m2
13:49 85.5 °F 38.6 °F 29.95 in WSW 5.0 mph 19.0 mph 19% 0.00 in 933.00 W/m2
13:54 85.6 °F 37.3 °F 29.95 in SSW 13.0 mph 16.0 mph 18% 0.00 in 930.00 W/m2
13:59 85.8 °F 36.0 °F 29.95 in SSE 14.0 mph 14.0 mph 17% 0.00 in 926.00 W/m2
14:04 86.0 °F 36.2 °F 29.95 in SSW 8.0 mph 15.0 mph 17% 0.00 in 919.00 W/m2
14:09 86.1 °F 37.7 °F 29.95 in South 9.0 mph 16.0 mph 18% 0.00 in 916.00 W/m2
14:14 86.3 °F 36.4 °F 29.95 in SSW 7.0 mph 16.0 mph 17% 0.00 in 914.00 W/m2
14:19 86.4 °F 36.5 °F 29.95 in SSW 11.0 mph 14.0 mph 17% 0.00 in 907.00 W/m2
14:24 86.5 °F 35.0 °F 29.95 in SSW 11.0 mph 15.0 mph 16% 0.00 in 898.00 W/m2
14:29 86.6 °F 36.6 °F 29.95 in South 16.0 mph 16.0 mph 17% 0.00 in 895.00 W/m2
14:34 86.6 °F 36.6 °F 29.95 in WSW 9.0 mph 11.0 mph 17% 0.00 in 886.00 W/m2
14:39 86.3 °F 37.8 °F 29.95 in Calm   14.0 mph 18% 0.00 in 881.00 W/m2
14:44 85.8 °F 37.4 °F 29.95 in SW 5.0 mph 18.0 mph 18% 0.00 in 874.00 W/m2
14:46 85.8 °F 37.4 °F 29.95 in Calm   2.0 mph 18% 0.00 in 875.00 W/m2
14:51 85.2 °F 37.0 °F 29.95 in SW 5.0 mph 5.0 mph 18% 0.00 in 872.00 W/m2
14:56 84.3 °F 36.2 °F 29.94 in SW 7.0 mph 7.0 mph 18% 0.00 in 860.00 W/m2
15:01 84.0 °F 37.3 °F 29.94 in Calm   9.0 mph 19% 0.00 in 846.00 W/m2
15:06 84.1 °F 36.1 °F 29.95 in Calm   5.0 mph 18% 0.00 in 847.00 W/m2
15:11 84.3 °F 34.8 °F 29.95 in SSW 9.0 mph 12.0 mph 17% 0.00 in 833.00 W/m2
15:16 84.5 °F 35.0 °F 29.94 in SW 4.0 mph 6.0 mph 17% 0.00 in 826.00 W/m2
15:21 84.5 °F 33.4 °F 29.95 in SW 8.0 mph 13.0 mph 16% 0.00 in 812.00 W/m2
15:26 84.3 °F 37.6 °F 29.94 in SW 1.0 mph 8.0 mph 19% 0.00 in 807.00 W/m2
15:31 84.0 °F 34.5 °F 29.95 in SW 4.0 mph 12.0 mph 17% 0.00 in 798.00 W/m2
15:36 83.8 °F 34.4 °F 29.94 in SW 8.0 mph 11.0 mph 17% 0.00 in 784.00 W/m2
15:41 83.7 °F 35.7 °F 29.94 in South 6.0 mph 10.0 mph 18% 0.00 in 777.00 W/m2
15:46 83.4 °F 35.5 °F 29.94 in WSW 3.0 mph 7.0 mph 18% 0.00 in 763.00 W/m2
15:51 83.1 °F 37.9 °F 29.94 in SW 6.0 mph 7.0 mph 20% 0.00 in 752.00 W/m2
15:56 83.0 °F 36.5 °F 29.94 in WSW 4.0 mph 11.0 mph 19% 0.00 in 740.00 W/m2
16:01 83.0 °F 36.5 °F 29.95 in West 7.0 mph 8.0 mph 19% 0.00 in 731.00 W/m2
16:06 83.1 °F 36.6 °F 29.94 in WSW 6.0 mph 6.0 mph 19% 0.00 in 719.00 W/m2
16:11 83.0 °F 35.2 °F 29.95 in South 11.0 mph 14.0 mph 18% 0.00 in 705.00 W/m2
16:16 83.1 °F 33.8 °F 29.95 in Calm     17% 0.00 in 694.00 W/m2
16:21 83.1 °F 35.2 °F 29.94 in Calm   7.0 mph 18% 0.00 in 680.00 W/m2
16:26 83.0 °F 35.2 °F 29.94 in Calm   6.0 mph 18% 0.00 in 668.00 W/m2
16:31 82.9 °F 33.7 °F 29.95 in SW 5.0 mph 9.0 mph 17% 0.00 in 652.00 W/m2
16:36 82.8 °F 33.6 °F 29.95 in Calm   9.0 mph 17% 0.00 in 638.00 W/m2
16:41 82.7 °F 34.9 °F 29.95 in Calm   6.0 mph 18% 0.00 in 624.00 W/m2
16:46 82.6 °F 34.8 °F 29.94 in SSW 6.0 mph 10.0 mph 18% 0.00 in 612.00 W/m2
16:51 82.6 °F 36.2 °F 29.94 in SSW 7.0 mph 9.0 mph 19% 0.00 in 598.00 W/m2
16:56 82.4 °F 36.0 °F 29.94 in Calm   6.0 mph 19% 0.00 in 585.00 W/m2
17:01 82.2 °F 35.9 °F 29.94 in Calm     19% 0.00 in 570.00 W/m2
17:06 82.2 °F 35.9 °F 29.94 in WSW 3.0 mph 13.0 mph 19% 0.00 in 554.00 W/m2
17:11 82.1 °F 35.8 °F 29.95 in Calm   4.0 mph 19% 0.00 in 536.00 W/m2
17:16 82.0 °F 38.2 °F 29.94 in Calm   1.0 mph 21% 0.00 in 522.00 W/m2
17:21 81.8 °F 38.1 °F 29.95 in Calm   8.0 mph 21% 0.00 in 508.00 W/m2
17:26 81.7 °F 35.5 °F 29.94 in South 3.0 mph 3.0 mph 19% 0.00 in 492.00 W/m2
17:31 81.6 °F 37.9 °F 29.94 in SW 2.0 mph 9.0 mph 21% 0.00 in 480.00 W/m2
17:36 81.5 °F 36.6 °F 29.94 in Calm   2.0 mph 20% 0.00 in 466.00 W/m2
17:42 81.4 °F 38.9 °F 29.94 in Calm   4.0 mph 22% 0.00 in 446.00 W/m2
17:47 81.3 °F 35.1 °F 29.94 in Calm   2.0 mph 19% 0.00 in 432.00 W/m2
17:52 81.1 °F 36.3 °F 29.94 in Calm   5.0 mph 20% 0.00 in 415.00 W/m2
17:57 80.9 °F 37.3 °F 29.94 in South 4.0 mph 9.0 mph 21% 0.00 in 401.00 W/m2
18:02 80.8 °F 36.0 °F 29.94 in SSW 4.0 mph 8.0 mph 20% 0.00 in 381.00 W/m2
18:07 80.7 °F 35.9 °F 29.94 in Calm     20% 0.00 in 366.00 W/m2
18:12 80.6 °F 37.1 °F 29.94 in Calm   4.0 mph 21% 0.00 in 350.00 W/m2
18:17 80.4 °F 38.1 °F 29.94 in SW 6.0 mph 6.0 mph 22% 0.00 in 338.00 W/m2
18:22 80.2 °F 39.1 °F 29.94 in Calm   1.0 mph 23% 0.00 in 318.00 W/m2
18:27 79.9 °F 38.8 °F 29.94 in Calm     23% 0.00 in 302.00 W/m2
18:32 79.8 °F 37.6 °F 29.93 in SW 3.0 mph 7.0 mph 22% 0.00 in 287.00 W/m2
18:37 79.6 °F 38.6 °F 29.93 in Calm   2.0 mph 23% 0.00 in 271.00 W/m2
18:42 79.5 °F 39.6 °F 29.94 in Calm   1.0 mph 24% 0.00 in 255.00 W/m2
18:47 79.3 °F 40.5 °F 29.94 in Calm   1.0 mph 25% 0.00 in 237.00 W/m2
18:52 79.2 °F 40.4 °F 29.94 in Calm   1.0 mph 25% 0.00 in 221.00 W/m2
18:57 78.9 °F 40.1 °F 29.94 in Calm   1.0 mph 25% 0.00 in 206.00 W/m2
19:02 78.5 °F 42.7 °F 29.93 in Calm   3.0 mph 28% 0.00 in 192.00 W/m2
19:07 77.9 °F 42.2 °F 29.94 in Calm   3.0 mph 28% 0.00 in 172.00 W/m2
19:12 77.4 °F 43.6 °F 29.94 in Calm   1.0 mph 30% 0.00 in 153.00 W/m2
19:17 77.0 °F 44.1 °F 29.94 in Calm     31% 0.00 in 134.00 W/m2
19:22 76.6 °F 42.9 °F 29.94 in Calm     30% 0.00 in 114.00 W/m2
19:27 76.2 °F 43.4 °F 29.94 in Calm   1.0 mph 31% 0.00 in 97.00 W/m2
19:32 75.7 °F 44.6 °F 29.94 in Calm     33% 0.00 in 79.00 W/m2
19:37 75.3 °F 45.0 °F 29.94 in Calm     34% 0.00 in 63.00 W/m2
19:42 74.8 °F 44.6 °F 29.94 in Calm     34% 0.00 in 53.00 W/m2
19:47 74.3 °F 44.1 °F 29.94 in Calm     34% 0.00 in 40.00 W/m2
19:52 74.0 °F 43.9 °F 29.94 in Calm     34% 0.00 in 30.00 W/m2
19:57 73.6 °F 44.3 °F 29.94 in Calm     35% 0.00 in 21.00 W/m2
20:02 73.1 °F 43.8 °F 29.94 in Calm     35% 0.00 in 16.00 W/m2
20:07 72.6 °F 42.7 °F 29.94 in Calm     34% 0.00 in 14.00 W/m2
20:12 72.2 °F 42.3 °F 29.94 in Calm     34% 0.00 in 12.00 W/m2
20:17 71.9 °F 42.0 °F 29.94 in Calm     34% 0.00 in 9.00 W/m2
20:22 71.6 °F 41.8 °F 29.94 in Calm     34% 0.00 in 7.00 W/m2
20:27 71.3 °F 40.7 °F 29.94 in Calm     33% 0.00 in 5.00 W/m2
20:32 71.0 °F 40.5 °F 29.94 in Calm     33% 0.00 in 0.00 W/m2
20:37 70.7 °F 39.4 °F 29.95 in Calm     32% 0.00 in 0.00 W/m2
20:42 70.3 °F 39.1 °F 29.95 in Calm     32% 0.00 in 0.00 W/m2
20:47 70.0 °F 38.8 °F 29.95 in Calm     32% 0.00 in 0.00 W/m2
20:53 69.8 °F 38.6 °F 29.95 in Calm     32% 0.00 in 0.00 W/m2
20:58 69.5 °F 38.4 °F 29.95 in Calm     32% 0.00 in 0.00 W/m2
21:03 69.3 °F 38.2 °F 29.95 in Calm     32% 0.00 in 0.00 W/m2
21:08 69.1 °F 38.0 °F 29.95 in Calm     32% 0.00 in 0.00 W/m2
21:13 68.9 °F 37.8 °F 29.95 in Calm     32% 0.00 in 0.00 W/m2
21:18 68.8 °F 37.8 °F 29.95 in Calm     32% 0.00 in 0.00 W/m2
21:23 68.6 °F 37.6 °F 29.95 in Calm     32% 0.00 in 0.00 W/m2
21:28 68.5 °F 37.5 °F 29.95 in Calm     32% 0.00 in 0.00 W/m2
21:33 68.4 °F 38.2 °F 29.95 in Calm     33% 0.00 in 0.00 W/m2
21:38 68.2 °F 38.0 °F 29.95 in Calm     33% 0.00 in 0.00 W/m2
21:43 68.2 °F 38.0 °F 29.95 in Calm     33% 0.00 in 0.00 W/m2
21:48 68.1 °F 37.9 °F 29.95 in Calm     33% 0.00 in 0.00 W/m2
21:53 68.0 °F 37.8 °F 29.95 in Calm     33% 0.00 in 0.00 W/m2
21:58 68.0 °F 38.6 °F 29.95 in Calm     34% 0.00 in 0.00 W/m2
22:03 67.9 °F 38.5 °F 29.96 in Calm     34% 0.00 in 0.00 W/m2
22:08 67.9 °F 38.5 °F 29.96 in SSW 1.0 mph 3.0 mph 34% 0.00 in 0.00 W/m2
22:13 67.9 °F 38.5 °F 29.96 in SSW 1.0 mph 4.0 mph 34% 0.00 in 0.00 W/m2
22:18 67.9 °F 37.8 °F 29.96 in SSE 6.0 mph 6.0 mph 33% 0.00 in 0.00 W/m2
22:23 67.9 °F 38.5 °F 29.96 in ESE 1.0 mph 11.0 mph 34% 0.00 in 0.00 W/m2
22:28 67.8 °F 38.4 °F 29.96 in Calm   5.0 mph 34% 0.00 in 0.00 W/m2
22:33 67.8 °F 38.4 °F 29.96 in ESE 2.0 mph 7.0 mph 34% 0.00 in 0.00 W/m2
22:38 67.8 °F 38.4 °F 29.96 in ESE 7.0 mph 8.0 mph 34% 0.00 in 0.00 W/m2
22:43 67.6 °F 39.0 °F 29.96 in ESE 1.0 mph 7.0 mph 35% 0.00 in 0.00 W/m2
22:48 67.5 °F 38.9 °F 29.96 in East 5.0 mph 9.0 mph 35% 0.00 in 0.00 W/m2
22:53 67.5 °F 38.9 °F 29.96 in Calm   8.0 mph 35% 0.00 in 0.00 W/m2
22:58 67.5 °F 38.9 °F 29.95 in Calm   12.0 mph 35% 0.00 in 0.00 W/m2
23:03 67.6 °F 39.7 °F 29.95 in ESE 7.0 mph 9.0 mph 36% 0.00 in 0.00 W/m2
23:08 67.7 °F 39.8 °F 29.96 in ESE 9.0 mph 11.0 mph 36% 0.00 in 0.00 W/m2
23:13 67.7 °F 39.8 °F 29.95 in ESE 5.0 mph 11.0 mph 36% 0.00 in 0.00 W/m2
23:18 67.8 °F 39.9 °F 29.95 in East 6.0 mph 13.0 mph 36% 0.00 in 0.00 W/m2
23:23 67.8 °F 39.2 °F 29.95 in East 4.0 mph 12.0 mph 35% 0.00 in 0.00 W/m2
23:28 67.9 °F 39.3 °F 29.95 in Calm   12.0 mph 35% 0.00 in 0.00 W/m2
23:33 67.9 °F 39.3 °F 29.95 in East 2.0 mph 11.0 mph 35% 0.00 in 0.00 W/m2
23:38 67.9 °F 39.3 °F 29.95 in ESE 4.0 mph 13.0 mph 35% 0.00 in 0.00 W/m2
23:43 68.0 °F 39.3 °F 29.95 in ESE 1.0 mph 16.0 mph 35% 0.00 in 0.00 W/m2
23:48 68.0 °F 39.3 °F 29.95 in East 6.0 mph 11.0 mph 35% 0.00 in 0.00 W/m2
23:53 68.1 °F 39.4 °F 29.95 in East 13.0 mph 14.0 mph 35% 0.00 in 0.00 W/m2
23:58 68.1 °F 39.4 °F 29.95 in East 6.0 mph 12.0 mph 35% 0.00 in 0.00 W/m2
Foresthill Weather
 WU-history PHP script courtesy of   Juneau County Weather.
powered by Cumulus v1.9.3 (1059)
Ambient Weather VWS v14.00
Top Contact Website Map Copyright © 2007 - 2018 Foresthillweather.com Never base important decisions on this or any weather information obtained from the Internet